Location: Sternwarte_Laufen
(47.9344°N, 12.9346°E)
Time: 05:20:34
(UTC+02:00)

BlueWalker 3 - Pass Details

Date: 19 May 2026
Orbit: 447 x 456 km, 53.2° (Epoch: 10 June)

Event Time Altitude Azimuth Distance (km) Brightness Sun altitude
Rises 04:00:34 0° 295° (WNW) 2,449 5.3 -11.7°
Reaches altitude 10° 04:02:45 10° 302° (WNW) 1,577 4.3 -11.5°
Maximum altitude 04:06:11 47° 17° (NNE) 604 2.8 -11.1°
Drops below altitude 10° 04:09:38 10° 93° (E) 1,576 5.1 -10.7°
Sets 04:11:48 0° 99° (E) 2,447 6.0 -10.4°
